Showing default

HAWK-C, 43799

Orbit data source: Space-Track

HAWK-C, 43799 is a payload satellite owned by HawkEye 360 (US) in SSO that was launched on Mon, 03 Dec 2018 UTC via an FALCON 9 launch vehicle from the Air Force Western Test Range (AFWTR). Payload-class satellites include a variety of spacecraft equipped with specific instruments for various scientific and technological missions. These include communications satellites like Starlink; space stations such as the ISS; scientific satellites like the Hubble; Earth observation satellites from companies like Planet Labs, Umbra, and HawkEye 360; GPS; miniature CubeSats for education and research; and military/defense satellites.

Loading next visibility...
Identifier
43799, 2018-099AT
Orbit
SSO
Country
Flag of USUS
Related business
Manufacturer
UTIAS-SFL
Mission
Operational Commercial Sigint
Bus & Motor
NEMO-V1, Unknown motor
Mass
12.75 kg wet, 12 kg dry
Launch date (UTC)
2018-12-03 (8 years ago)
Launch vehicle
FALCON 9
Launch site
Air Force Western Test Range (AFWTR)
Object type
Payload
Rocket body
Debris
Shape & HBR
Box + 2 Pan, 1.0 m
Radar Cross Section
0.348 m², Medium (>0.1 m² and < 1m²)

Expand to show TLE details & history
Last TLE update: 16 hours ago

TLE from 16 hours ago
0 HAWK-C
1 43799U 18099AT  26193.72865411  .00005004  00000-0  17915-3 0  9999
2 43799  97.3881 246.6730 0040041 192.5496 167.4750 15.28466075417818
Epoch: 2026-07-12T17:29Z
TLE epoch observation values (Epoch: 2026-07-12T17:29:15.715Z)
Latitude
-0.00008°
Longitude
53.73418°
Altitude
510.319 km
Speed
7.594 km/s
True Right ascension
16h 26m 41s
True Declination
0° 00' 00"
Sunlit
Object was in full shadow at epoch
Visualization orbit readout
Latitude
Unknown
Longitude
Unknown
Altitude
Unknown
Speed
Unknown
Apparent Right ascension
Unknown
Apparent Declination
Unknown
Sunlit
N/A
Visualization observer readout
Local Sidereal Time
22:19:46
Azimuth
Unknown
Elevation
Unknown
Doppler factor
Unknown
Orbital elements
Apogee altitude
504.801 km
Perigee altitude
449.901 km
Semi-major axis
6,855.488 km
Eccentricity
0.004
Inclination
97.3881°
RAAN
246.673°
Arg. of periapsis
192.5496°
True anomaly
167.57402°
Mean anomaly
167.475°
Eccentric anomaly
167.52456°
Mean motion
3.82372 °/min
Orbital period
94.15 mins
BSTAR
0.00017915
Loading maneuver chart data...
Computing Atmospheric mass density...
Loading historical data...
Loading historical data...
Loading historical data...
Loading historical data...
Loading historical data...
Loading historical data...
Loading historical data...

Documentation

Showing up to 5 results
|